Zurück zum Katalog

KUIPER-00061

AktivKommunikationLEO
NORAD 64521·PAYLOAD·🇺🇸 United States

Gestartet Jun 23, 2025 von Cape Canaveral Space Force Station

Loading…

Nächste Überflüge (nächste 24 Stunden)

TLE

AktuellSource: CelesTrak SupGP

Epoche: Sep 14, 2026, 22:36 UTC

1 64521C 25134X   26257.94201389  .00005733  00000+0  75037-3 0  2570
2 64521  51.8987 111.2299 0001010 107.7837   0.0209 14.79931104    19

Verfolge KUIPER-00061 in Echtzeit mit AllMySat

Download on the App Store